| time (UTC) | temp F | wind direction | speed MPH | gust MPH | rain 1hr in | rain 24hr in | rain mn in | humidity % | barometer mb |
| 20260901024144 | 73 | 78 | 0.0 | 0.0 | 0.00 | 0.00 | 0.00 | 92 | 1015.2 |
| 20260901023644 | 73 | 78 | 0.0 | 0.0 | 0.00 | 0.00 | 0.00 | 92 | 1015.2 |
| 20260901023144 | 73 | 78 | 0.0 | 0.0 | 0.00 | 0.00 | 0.00 | 92 | 1015.2 |
| 20260901022644 | 73 | 78 | 0.0 | 0.0 | 0.00 | 0.00 | 0.00 | 92 | 1015.1 |
| 20260901022144 | 73 | 78 | 1.0 | 0.0 | 0.00 | 0.00 | 0.00 | 92 | 1015.2 |
| 20260901021644 | 73 | 78 | 2.0 | 3.0 | 0.00 | 0.00 | 0.00 | 92 | 1015.2 |
| 20260901021144 | 73 | 78 | 2.0 | 3.0 | 0.00 | 0.00 | 0.00 | 92 | 1015.3 |
| 20260901020644 | 73 | 77 | 2.0 | 3.0 | 0.00 | 0.00 | 0.00 | 92 | 1015.2 |
| 20260901020144 | 73 | 76 | 1.0 | 3.0 | 0.00 | 0.00 | 0.00 | 92 | 1015.3 |
| 20260901015644 | 73 | 51 | 1.0 | 2.0 | 0.00 | 0.00 | 0.00 | 92 | 1015.3 |
| 20260901015144 | 74 | 49 | 2.0 | 3.0 | 0.00 | 0.00 | 0.00 | 92 | 1015.3 |
| 20260901014644 | 74 | 49 | 2.0 | 3.0 | 0.00 | 0.00 | 0.00 | 92 | 1015.3 |
| 20260901014144 | 74 | 49 | 2.0 | 3.0 | 0.00 | 0.00 | 0.00 | 91 | 1015.3 |
| 20260901013644 | 74 | 49 | 1.0 | 2.0 | 0.00 | 0.00 | 0.00 | 92 | 1015.3 |
| 20260901013144 | 75 | 49 | 1.0 | 2.0 | 0.00 | 0.00 | 0.00 | 92 | 1015.2 |
| 20260901012644 | 75 | 49 | 1.0 | 2.0 | 0.00 | 0.00 | 0.00 | 92 | 1015.3 |
| 20260901012144 | 75 | 49 | 2.0 | 2.0 | 0.00 | 0.00 | 0.00 | 92 | 1015.3 |
| 20260901011644 | 75 | 49 | 2.0 | 2.0 | 0.00 | 0.00 | 0.00 | 92 | 1015.3 |
| 20260901011144 | 74 | 49 | 2.0 | 3.0 | 0.00 | 0.00 | 0.00 | 91 | 1015.3 |
| 20260901010644 | 74 | 49 | 2.0 | 3.0 | 0.00 | 0.00 | 0.00 | 91 | 1015.3 |
| 20260901010144 | 74 | 49 | 1.0 | 3.0 | 0.00 | 0.00 | 0.00 | 91 | 1015.3 |
| 20260901005658 | 75 | 117 | 0.0 | 0.0 | 0.00 | 0.00 | 0.00 | 91 | 1015.3 |
| 20260901005144 | 75 | 117 | 0.0 | 0.0 | 0.00 | 0.00 | 0.00 | 91 | 1015.4 |
| 20260901004644 | 75 | 117 | 0.0 | 0.0 | 0.00 | 0.00 | 0.00 | 91 | 1015.3 |
| 20260901004144 | 75 | 117 | 0.0 | 0.0 | 0.00 | 0.00 | 0.00 | 91 | 1015.2 |
| 20260901003644 | 75 | 117 | 0.0 | 0.0 | 0.00 | 0.00 | 0.00 | 90 | 1015.2 |
| 20260901002644 | 75 | 117 | 1.0 | 1.0 | 0.00 | 0.00 | 0.00 | 90 | 1015.1 |
| 20260901002144 | 76 | 117 | 1.0 | 2.0 | 0.00 | 0.00 | 0.00 | 90 | 1015.0 |
| 20260901001644 | 76 | 117 | 2.0 | 2.0 | 0.00 | 0.00 | 0.00 | 91 | 1015.0 |
| 20260901001144 | 75 | 117 | 1.0 | 2.0 | 0.00 | 0.00 | 0.00 | 91 | 1014.9 |
| 20260901000644 | 75 | 117 | 0.0 | 1.0 | 0.00 | 0.00 | 0.00 | 90 | 1014.9 |
| 20260901000144 | 75 | 117 | 0.0 | 0.0 | 0.00 | 0.00 | 0.00 | 90 | 1014.8 |
| 20260831235644 | 75 | 117 | 0.0 | 0.0 | 0.00 | 0.00 | 0.00 | 90 | 1014.7 |
| 20260831235144 | 75 | 117 | 1.0 | 0.0 | 0.00 | 0.00 | 0.00 | 90 | 1014.7 |
| 20260831234644 | 75 | 117 | 1.0 | 2.0 | 0.00 | 0.00 | 0.00 | 90 | 1014.9 |
| 20260831234144 | 76 | 117 | 0.0 | 0.0 | 0.00 | 0.00 | 0.00 | 90 | 1014.9 |
| 20260831233644 | 76 | 117 | 0.0 | 0.0 | 0.00 | 0.00 | 0.00 | 90 | 1014.9 |
| 20260831233144 | 76 | 117 | 0.0 | 0.0 | 0.00 | 0.00 | 0.00 | 90 | 1015.1 |
| 20260831232644 | 76 | 117 | 0.0 | 0.0 | 0.00 | 0.00 | 0.00 | 89 | 1015.1 |
| 20260831232144 | 76 | 117 | 0.0 | 0.0 | 0.00 | 0.00 | 0.00 | 90 | 1014.9 |
| 20260831231644 | 76 | 117 | 0.0 | 0.0 | 0.00 | 0.00 | 0.00 | 89 | 1015.0 |
| 20260831231145 | 76 | 117 | 0.0 | 0.0 | 0.00 | 0.00 | 0.00 | 89 | 1015.0 |
| 20260831230644 | 76 | 117 | 0.0 | 0.0 | 0.00 | 0.00 | 0.00 | 89 | 1014.9 |
| 20260831230145 | 76 | 117 | 0.0 | 0.0 | 0.00 | 0.00 | 0.00 | 89 | 1014.8 |
| 20260831225645 | 76 | 117 | 0.0 | 0.0 | 0.00 | 0.00 | 0.00 | 89 | 1014.7 |
| 20260831225145 | 76 | 117 | 0.0 | 0.0 | 0.00 | 0.00 | 0.00 | 89 | 1014.7 |
| 20260831224644 | 76 | 117 | 1.0 | 1.0 | 0.00 | 0.00 | 0.00 | 89 | 1014.7 |
| 20260831224145 | 77 | 117 | 0.0 | 2.0 | 0.00 | 0.00 | 0.00 | 89 | 1014.8 |
| 20260831223645 | 77 | 117 | 0.0 | 0.0 | 0.00 | 0.00 | 0.00 | 89 | 1014.7 |
| 20260831223145 | 77 | 117 | 1.0 | 2.0 | 0.00 | 0.00 | 0.00 | 89 | 1014.6 |
| 20260831222645 | 77 | 117 | 1.0 | 2.0 | 0.00 | 0.00 | 0.00 | 89 | 1014.4 |
| 20260831222145 | 77 | 117 | 1.0 | 2.0 | 0.00 | 0.00 | 0.00 | 89 | 1014.4 |
| 20260831221645 | 76 | 117 | 0.0 | 2.0 | 0.00 | 0.00 | 0.00 | 89 | 1014.3 |
| 20260831221145 | 76 | 117 | 0.0 | 0.0 | 0.00 | 0.00 | 0.00 | 88 | 1014.3 |
| 20260831220645 | 77 | 117 | 1.0 | 1.0 | 0.00 | 0.00 | 0.00 | 88 | 1014.4 |
| 20260831220145 | 77 | 117 | 1.0 | 2.0 | 0.00 | 0.00 | 0.00 | 88 | 1014.5 |
| 20260831215645 | 77 | 117 | 1.0 | 2.0 | 0.00 | 0.00 | 0.00 | 88 | 1014.4 |
| 20260831215145 | 77 | 117 | 1.0 | 2.0 | 0.00 | 0.00 | 0.00 | 88 | 1014.5 |
| 20260831214645 | 77 | 117 | 0.0 | 2.0 | 0.00 | 0.00 | 0.00 | 88 | 1014.4 |
| 20260831214145 | 78 | 117 | 1.0 | 2.0 | 0.00 | 0.00 | 0.00 | 88 | 1014.4 |
| 20260831213645 | 78 | 117 | 1.0 | 2.0 | 0.00 | 0.00 | 0.00 | 88 | 1014.5 |
| 20260831213145 | 78 | 117 | 0.0 | 2.0 | 0.00 | 0.00 | 0.00 | 88 | 1014.4 |
| 20260831212645 | 78 | 117 | 0.0 | 0.0 | 0.00 | 0.00 | 0.00 | 88 | 1014.4 |
| 20260831212145 | 78 | 117 | 1.0 | 1.0 | 0.00 | 0.00 | 0.00 | 88 | 1014.3 |
| 20260831211645 | 78 | 117 | 3.0 | 3.0 | 0.00 | 0.00 | 0.00 | 88 | 1014.4 |
| 20260831211145 | 78 | 117 | 3.0 | 6.0 | 0.00 | 0.00 | 0.00 | 88 | 1014.3 |
| 20260831210645 | 78 | 111 | 3.0 | 6.0 | 0.00 | 0.00 | 0.00 | 88 | 1014.4 |
| 20260831210145 | 78 | 108 | 2.0 | 4.0 | 0.00 | 0.00 | 0.00 | 88 | 1014.4 |
| 20260831205645 | 79 | 115 | 3.0 | 4.0 | 0.00 | 0.00 | 0.00 | 88 | 1014.4 |
| 20260831205145 | 79 | 115 | 3.0 | 4.0 | 0.00 | 0.00 | 0.00 | 88 | 1014.3 |
| 20260831204645 | 79 | 112 | 3.0 | 4.0 | 0.00 | 0.00 | 0.00 | 88 | 1014.4 |
| 20260831204145 | 79 | 105 | 2.0 | 4.0 | 0.00 | 0.00 | 0.00 | 89 | 1014.3 |
| 20260831203645 | 79 | 71 | 2.0 | 3.0 | 0.00 | 0.00 | 0.00 | 89 | 1014.4 |
| 20260831203145 | 79 | 70 | 1.0 | 3.0 | 0.00 | 0.00 | 0.00 | 89 | 1014.5 |
| 20260831202645 | 79 | 0 | 1.0 | 3.0 | 0.00 | 0.00 | 0.00 | 89 | 1014.4 |
| 20260831202145 | 79 | 321 | 1.0 | 2.0 | 0.00 | 0.00 | 0.00 | 89 | 1014.3 |
| 20260831201645 | 79 | 321 | 2.0 | 3.0 | 0.00 | 0.00 | 0.00 | 88 | 1014.3 |
| 20260831201145 | 79 | 321 | 2.0 | 2.0 | 0.00 | 0.00 | 0.00 | 89 | 1014.3 |
| 20260831200645 | 79 | 321 | 2.0 | 3.0 | 0.00 | 0.00 | 0.00 | 89 | 1014.3 |
| 20260831200145 | 79 | 321 | 3.0 | 4.0 | 0.00 | 0.00 | 0.00 | 88 | 1014.2 |
| 20260831195645 | 79 | 0 | 2.0 | 3.0 | 0.00 | 0.00 | 0.00 | 88 | 1014.1 |
| 20260831195145 | 80 | 11 | 1.0 | 3.0 | 0.00 | 0.00 | 0.00 | 88 | 1014.0 |
| 20260831194645 | 80 | 118 | 1.0 | 2.0 | 0.00 | 0.00 | 0.00 | 88 | 1013.9 |
| 20260831194145 | 80 | 118 | 1.0 | 3.0 | 0.00 | 0.00 | 0.00 | 88 | 1013.9 |
| 20260831193645 | 80 | 117 | 2.0 | 3.0 | 0.00 | 0.00 | 0.00 | 88 | 1013.8 |
| 20260831193145 | 80 | 107 | 2.0 | 3.0 | 0.00 | 0.00 | 0.00 | 87 | 1013.7 |
| 20260831192645 | 80 | 107 | 1.0 | 3.0 | 0.00 | 0.00 | 0.00 | 87 | 1013.8 |
| 20260831192145 | 80 | 107 | 1.0 | 0.0 | 0.00 | 0.00 | 0.00 | 87 | 1013.7 |
| 20260831191645 | 80 | 107 | 2.0 | 3.0 | 0.00 | 0.00 | 0.00 | 86 | 1013.8 |
| 20260831191145 | 81 | 107 | 3.0 | 6.0 | 0.00 | 0.00 | 0.00 | 86 | 1013.7 |
| 20260831190645 | 81 | 123 | 3.0 | 4.0 | 0.00 | 0.00 | 0.00 | 86 | 1013.6 |
| 20260831190145 | 81 | 126 | 4.0 | 5.0 | 0.00 | 0.00 | 0.00 | 86 | 1013.6 |
| 20260831185645 | 81 | 132 | 4.0 | 7.0 | 0.00 | 0.00 | 0.00 | 85 | 1013.6 |
| 20260831185145 | 81 | 126 | 4.0 | 6.0 | 0.00 | 0.00 | 0.00 | 85 | 1013.6 |
| 20260831184645 | 81 | 125 | 3.0 | 5.0 | 0.00 | 0.00 | 0.00 | 84 | 1013.5 |
| 20260831184145 | 81 | 121 | 3.0 | 5.0 | 0.00 | 0.00 | 0.00 | 84 | 1013.4 |
| 20260831183645 | 81 | 121 | 3.0 | 4.0 | 0.00 | 0.00 | 0.00 | 83 | 1013.5 |
| 20260831183145 | 81 | 103 | 3.0 | 4.0 | 0.00 | 0.00 | 0.00 | 82 | 1013.5 |
| 20260831182645 | 81 | 96 | 3.0 | 4.0 | 0.00 | 0.00 | 0.00 | 82 | 1013.5 |
| 20260831182145 | 82 | 124 | 2.0 | 3.0 | 0.00 | 0.00 | 0.00 | 82 | 1013.5 |
| 20260831181645 | 82 | 139 | 2.0 | 3.0 | 0.00 | 0.00 | 0.00 | 81 | 1013.6 |
| 20260831181145 | 82 | 139 | 2.0 | 3.0 | 0.00 | 0.00 | 0.00 | 81 | 1013.4 |
| 20260831180645 | 83 | 172 | 2.0 | 3.0 | 0.00 | 0.00 | 0.00 | 82 | 1013.5 |
| 20260831180145 | 83 | 172 | 3.0 | 6.0 | 0.00 | 0.00 | 0.00 | 82 | 1013.4 |
| 20260831175645 | 83 | 173 | 4.0 | 6.0 | 0.00 | 0.00 | 0.00 | 82 | 1013.1 |
| 20260831175145 | 83 | 169 | 4.0 | 6.0 | 0.00 | 0.00 | 0.00 | 82 | 1013.2 |
| 20260831174645 | 83 | 164 | 4.0 | 5.0 | 0.00 | 0.00 | 0.00 | 81 | 1013.2 |
| 20260831174145 | 83 | 146 | 3.0 | 6.0 | 0.00 | 0.00 | 0.00 | 81 | 1013.3 |
| 20260831173645 | 83 | 158 | 3.0 | 5.0 | 0.00 | 0.00 | 0.00 | 81 | 1013.3 |
| 20260831173145 | 83 | 186 | 3.0 | 6.0 | 0.00 | 0.00 | 0.00 | 81 | 1013.2 |
| 20260831172645 | 84 | 160 | 2.0 | 5.0 | 0.00 | 0.00 | 0.00 | 80 | 1013.2 |
| 20260831172145 | 84 | 180 | 4.0 | 8.0 | 0.00 | 0.00 | 0.00 | 79 | 1013.2 |
| 20260831171645 | 84 | 217 | 5.0 | 8.0 | 0.00 | 0.00 | 0.00 | 79 | 1013.2 |
| 20260831171145 | 84 | 236 | 5.0 | 11.0 | 0.00 | 0.00 | 0.00 | 79 | 1013.1 |
| 20260831170645 | 84 | 238 | 4.0 | 12.0 | 0.00 | 0.00 | 0.00 | 78 | 1013.1 |
| 20260831170145 | 84 | 170 | 5.0 | 7.0 | 0.00 | 0.00 | 0.00 | 77 | 1013.1 |
| 20260831165645 | 85 | 208 | 7.0 | 12.0 | 0.00 | 0.00 | 0.00 | 77 | 1013.1 |
| 20260831165145 | 85 | 217 | 8.0 | 12.0 | 0.00 | 0.00 | 0.00 | 76 | 1013.1 |
| 20260831164645 | 85 | 247 | 8.0 | 12.0 | 0.00 | 0.00 | 0.00 | 76 | 1013.1 |
| 20260831164145 | 85 | 254 | 8.0 | 12.0 | 0.00 | 0.00 | 0.00 | 76 | 1013.1 |
| 20260831163645 | 85 | 199 | 7.0 | 12.0 | 0.00 | 0.00 | 0.00 | 75 | 1013.0 |
| 20260831163145 | 85 | 211 | 7.0 | 15.0 | 0.00 | 0.00 | 0.00 | 74 | 1013.1 |
| 20260831162645 | 85 | 216 | 7.0 | 10.0 | 0.00 | 0.00 | 0.00 | 74 | 1013.0 |
| 20260831162145 | 86 | 232 | 7.0 | 11.0 | 0.00 | 0.00 | 0.00 | 74 | 1013.1 |
| 20260831161645 | 86 | 236 | 7.0 | 11.0 | 0.00 | 0.00 | 0.00 | 74 | 1013.1 |
| 20260831161145 | 86 | 251 | 8.0 | 11.0 | 0.00 | 0.00 | 0.00 | 74 | 1013.2 |
| 20260831160645 | 86 | 219 | 8.0 | 11.0 | 0.00 | 0.00 | 0.00 | 73 | 1013.2 |
| 20260831160145 | 86 | 263 | 8.0 | 14.0 | 0.00 | 0.00 | 0.00 | 73 | 1013.1 |
| 20260831155645 | 86 | 254 | 8.0 | 14.0 | 0.00 | 0.00 | 0.00 | 73 | 1013.0 |
| 20260831155145 | 86 | 284 | 9.0 | 13.0 | 0.00 | 0.00 | 0.00 | 74 | 1013.0 |
| 20260831154645 | 86 | 275 | 9.0 | 14.0 | 0.00 | 0.00 | 0.00 | 74 | 1013.1 |
| 20260831154145 | 86 | 263 | 10.0 | 15.0 | 0.00 | 0.00 | 0.00 | 75 | 1013.0 |
| 20260831153645 | 87 | 240 | 10.0 | 14.0 | 0.00 | 0.00 | 0.00 | 74 | 1013.0 |
| 20260831153145 | 87 | 261 | 10.0 | 15.0 | 0.00 | 0.00 | 0.00 | 74 | 1013.0 |
| 20260831152645 | 87 | 246 | 11.0 | 14.0 | 0.00 | 0.00 | 0.00 | 74 | 1013.0 |
| 20260831152145 | 87 | 229 | 11.0 | 19.0 | 0.00 | 0.00 | 0.00 | 72 | 1012.8 |
| 20260831151645 | 87 | 250 | 8.0 | 18.0 | 0.00 | 0.00 | 0.00 | 72 | 1012.8 |
| 20260831151145 | 87 | 265 | 7.0 | 13.0 | 0.00 | 0.00 | 0.00 | 71 | 1012.8 |
| 20260831150645 | 87 | 252 | 8.0 | 13.0 | 0.00 | 0.00 | 0.00 | 72 | 1012.8 |
| 20260831150145 | 87 | 244 | 8.0 | 13.0 | 0.00 | 0.00 | 0.00 | 73 | 1012.8 |
| 20260831145645 | 87 | 245 | 9.0 | 14.0 | 0.00 | 0.00 | 0.00 | 74 | 1012.8 |
| 20260831145145 | 87 | 234 | 10.0 | 15.0 | 0.00 | 0.00 | 0.00 | 74 | 1012.8 |
| 20260831144645 | 88 | 250 | 11.0 | 14.0 | 0.00 | 0.00 | 0.00 | 74 | 1012.7 |
| 20260831144145 | 87 | 247 | 12.0 | 18.0 | 0.00 | 0.00 | 0.00 | 73 | 1012.7 |
| 20260831143645 | 88 | 213 | 11.0 | 17.0 | 0.00 | 0.00 | 0.00 | 72 | 1012.8 |
| 20260831143145 | 88 | 209 | 10.0 | 16.0 | 0.00 | 0.00 | 0.00 | 72 | 1012.7 |
| 20260831142645 | 88 | 257 | 10.0 | 15.0 | 0.00 | 0.00 | 0.00 | 71 | 1012.7 |
| 20260831142145 | 88 | 235 | 12.0 | 16.0 | 0.00 | 0.00 | 0.00 | 72 | 1012.7 |
| 20260831141645 | 88 | 214 | 12.0 | 17.0 | 0.00 | 0.00 | 0.00 | 71 | 1012.7 |
| 20260831141145 | 88 | 243 | 11.0 | 18.0 | 0.00 | 0.00 | 0.00 | 71 | 1012.8 |
| 20260831140645 | 88 | 265 | 9.0 | 15.0 | 0.00 | 0.00 | 0.00 | 71 | 1012.7 |
| 20260831140145 | 88 | 269 | 10.0 | 13.0 | 0.00 | 0.00 | 0.00 | 70 | 1012.7 |
| 20260831135645 | 88 | 269 | 11.0 | 16.0 | 0.00 | 0.00 | 0.00 | 70 | 1012.7 |
| 20260831135145 | 89 | 268 | 11.0 | 17.0 | 0.00 | 0.00 | 0.00 | 70 | 1012.7 |
| 20260831134645 | 88 | 273 | 11.0 | 15.0 | 0.00 | 0.00 | 0.00 | 69 | 1012.8 |
| 20260831134146 | 89 | 264 | 10.0 | 16.0 | 0.00 | 0.00 | 0.00 | 69 | 1012.7 |
| 20260831133646 | 89 | 208 | 9.0 | 15.0 | 0.00 | 0.00 | 0.00 | 69 | 1012.8 |
| 20260831133145 | 89 | 244 | 10.0 | 16.0 | 0.00 | 0.00 | 0.00 | 68 | 1012.7 |
| 20260831132646 | 89 | 244 | 12.0 | 17.0 | 0.00 | 0.00 | 0.00 | 68 | 1012.7 |
| 20260831132146 | 89 | 255 | 13.0 | 20.0 | 0.00 | 0.00 | 0.00 | 67 | 1012.8 |
| 20260831131646 | 89 | 256 | 13.0 | 18.0 | 0.00 | 0.00 | 0.00 | 65 | 1012.7 |
| 20260831131146 | 89 | 254 | 11.0 | 20.0 | 0.00 | 0.00 | 0.00 | 66 | 1012.6 |
| 20260831130646 | 89 | 279 | 10.0 | 15.0 | 0.00 | 0.00 | 0.00 | 66 | 1012.7 |
| 20260831130146 | 89 | 260 | 9.0 | 16.0 | 0.00 | 0.00 | 0.00 | 67 | 1012.7 |
| 20260831125646 | 90 | 248 | 9.0 | 16.0 | 0.00 | 0.00 | 0.00 | 70 | 1012.7 |
| 20260831125146 | 89 | 265 | 10.0 | 15.0 | 0.00 | 0.00 | 0.00 | 70 | 1012.8 |
| 20260831124646 | 89 | 228 | 10.0 | 16.0 | 0.00 | 0.00 | 0.00 | 70 | 1012.8 |
| 20260831124146 | 90 | 236 | 10.0 | 16.0 | 0.00 | 0.00 | 0.00 | 70 | 1012.8 |
| 20260831123646 | 90 | 265 | 10.0 | 16.0 | 0.00 | 0.00 | 0.00 | 69 | 1012.9 |
| 20260831123146 | 90 | 267 | 9.0 | 16.0 | 0.00 | 0.00 | 0.00 | 69 | 1013.0 |
| 20260831122646 | 90 | 232 | 10.0 | 14.0 | 0.00 | 0.00 | 0.00 | 68 | 1013.1 |
| 20260831122146 | 90 | 226 | 10.0 | 14.0 | 0.00 | 0.00 | 0.00 | 68 | 1013.1 |
| 20260831121646 | 90 | 222 | 10.0 | 16.0 | 0.00 | 0.00 | 0.00 | 67 | 1013.1 |
| 20260831121146 | 90 | 252 | 10.0 | 14.0 | 0.00 | 0.00 | 0.00 | 68 | 1013.2 |
| 20260831120646 | 90 | 225 | 9.0 | 14.0 | 0.00 | 0.00 | 0.00 | 66 | 1013.2 |
| 20260831120146 | 91 | 206 | 7.0 | 12.0 | 0.00 | 0.00 | 0.00 | 66 | 1013.2 |
| 20260831115646 | 91 | 244 | 5.0 | 9.0 | 0.00 | 0.00 | 0.00 | 63 | 1013.2 |
| 20260831115146 | 91 | 259 | 5.0 | 9.0 | 0.00 | 0.00 | 0.00 | 63 | 1013.2 |
| 20260831114646 | 91 | 234 | 6.0 | 9.0 | 0.00 | 0.00 | 0.00 | 64 | 1013.2 |
| 20260831114146 | 90 | 250 | 5.0 | 12.0 | 0.00 | 0.00 | 0.00 | 61 | 1013.2 |
| 20260831113646 | 90 | 251 | 5.0 | 8.0 | 0.00 | 0.00 | 0.00 | 60 | 1013.3 |
| 20260831113146 | 90 | 314 | 7.0 | 11.0 | 0.00 | 0.00 | 0.00 | 60 | 1013.2 |
| 20260831112646 | 89 | 276 | 7.0 | 9.0 | 0.00 | 0.00 | 0.00 | 63 | 1013.3 |
| 20260831112146 | 89 | 259 | 9.0 | 13.0 | 0.00 | 0.00 | 0.00 | 65 | 1013.3 |
| 20260831111646 | 89 | 269 | 9.0 | 13.0 | 0.00 | 0.00 | 0.00 | 65 | 1013.3 |
| 20260831111146 | 89 | 273 | 9.0 | 14.0 | 0.00 | 0.00 | 0.00 | 64 | 1013.3 |
| 20260831110646 | 89 | 267 | 9.0 | 13.0 | 0.00 | 0.00 | 0.00 | 65 | 1013.4 |
| 20260831110146 | 90 | 271 | 7.0 | 13.0 | 0.00 | 0.00 | 0.00 | 64 | 1013.5 |
| 20260831105646 | 90 | 257 | 6.0 | 10.0 | 0.00 | 0.00 | 0.00 | 62 | 1013.5 |
| 20260831105146 | 90 | 261 | 6.0 | 10.0 | 0.00 | 0.00 | 0.00 | 61 | 1013.6 |
| 20260831104646 | 89 | 257 | 6.0 | 10.0 | 0.00 | 0.00 | 0.00 | 61 | 1013.6 |
| 20260831104146 | 89 | 275 | 6.0 | 11.0 | 0.00 | 0.00 | 0.00 | 60 | 1013.6 |
| 20260831103646 | 89 | 309 | 6.0 | 10.0 | 0.00 | 0.00 | 0.00 | 62 | 1013.6 |
| 20260831103153 | 89 | 278 | 6.0 | 9.0 | 0.00 | 0.00 | 0.00 | 63 | 1013.6 |
| 20260831102646 | 89 | 267 | 8.0 | 11.0 | 0.00 | 0.00 | 0.00 | 63 | 1013.8 |
| 20260831102146 | 89 | 303 | 8.0 | 13.0 | 0.00 | 0.00 | 0.00 | 63 | 1013.8 |
| 20260831101646 | 89 | 265 | 6.0 | 12.0 | 0.00 | 0.00 | 0.00 | 63 | 1013.7 |
| 20260831101146 | 89 | 272 | 5.0 | 10.0 | 0.00 | 0.00 | 0.00 | 63 | 1013.8 |
| 20260831100646 | 89 | 242 | 6.0 | 10.0 | 0.00 | 0.00 | 0.00 | 61 | 1013.7 |
| 20260831100146 | 89 | 271 | 7.0 | 11.0 | 0.00 | 0.00 | 0.00 | 63 | 1013.8 |
| 20260831095646 | 89 | 276 | 8.0 | 11.0 | 0.00 | 0.00 | 0.00 | 62 | 1013.8 |
| 20260831095146 | 89 | 254 | 6.0 | 12.0 | 0.00 | 0.00 | 0.00 | 61 | 1013.8 |
| 20260831094646 | 90 | 267 | 5.0 | 10.0 | 0.00 | 0.00 | 0.00 | 60 | 1013.8 |
| 20260831094146 | 90 | 278 | 4.0 | 9.0 | 0.00 | 0.00 | 0.00 | 60 | 1013.8 |
| 20260831093646 | 89 | 310 | 4.0 | 7.0 | 0.00 | 0.00 | 0.00 | 57 | 1013.8 |
| 20260831093146 | 89 | 344 | 5.0 | 9.0 | 0.00 | 0.00 | 0.00 | 57 | 1013.9 |
| 20260831092646 | 89 | 292 | 7.0 | 11.0 | 0.00 | 0.00 | 0.00 | 58 | 1013.9 |
| 20260831092146 | 89 | 305 | 6.0 | 11.0 | 0.00 | 0.00 | 0.00 | 56 | 1014.0 |
| 20260831091646 | 89 | 279 | 4.0 | 8.0 | 0.00 | 0.00 | 0.00 | 60 | 1013.9 |
| 20260831091146 | 88 | 279 | 6.0 | 9.0 | 0.00 | 0.00 | 0.00 | 58 | 1014.1 |
| 20260831090648 | 88 | 300 | 6.0 | 10.0 | 0.00 | 0.00 | 0.00 | 59 | 1014.0 |
| 20260831090146 | 88 | 281 | 6.0 | 9.0 | 0.00 | 0.00 | 0.00 | 58 | 1014.1 |
| 20260831085646 | 88 | 272 | 6.0 | 9.0 | 0.00 | 0.00 | 0.00 | 59 | 1014.0 |
| 20260831085146 | 88 | 292 | 5.0 | 8.0 | 0.00 | 0.00 | 0.00 | 59 | 1014.0 |
| 20260831084646 | 88 | 288 | 5.0 | 9.0 | 0.00 | 0.00 | 0.00 | 59 | 1014.0 |
| 20260831084146 | 88 | 287 | 5.0 | 8.0 | 0.00 | 0.00 | 0.00 | 58 | 1014.1 |
| 20260831083646 | 88 | 277 | 3.0 | 8.0 | 0.00 | 0.00 | 0.00 | 59 | 1014.0 |
| 20260831083146 | 88 | 271 | 2.0 | 5.0 | 0.00 | 0.00 | 0.00 | 58 | 1014.0 |
| 20260831082646 | 88 | 311 | 1.0 | 4.0 | 0.00 | 0.00 | 0.00 | 58 | 1014.0 |
| 20260831082146 | 89 | 265 | 0.0 | 4.0 | 0.00 | 0.00 | 0.00 | 58 | 1014.0 |
| 20260831081646 | 89 | 51 | 0.0 | 0.0 | 0.00 | 0.00 | 0.00 | 58 | 1014.0 |
| 20260831081146 | 89 | 51 | 0.0 | 0.0 | 0.00 | 0.00 | 0.00 | 61 | 1014.0 |
| 20260831080646 | 88 | 50 | 1.0 | 2.0 | 0.00 | 0.00 | 0.00 | 60 | 1014.1 |
| 20260831080146 | 88 | 320 | 1.0 | 1.0 | 0.00 | 0.00 | 0.00 | 62 | 1014.0 |
| 20260831075646 | 88 | 258 | 0.0 | 3.0 | 0.00 | 0.00 | 0.00 | 60 | 1014.0 |
| 20260831075146 | 87 | 342 | 0.0 | 0.0 | 0.00 | 0.00 | 0.00 | 61 | 1014.0 |
| 20260831074646 | 87 | 342 | 0.0 | 0.0 | 0.00 | 0.00 | 0.00 | 61 | 1014.1 |
| 20260831074146 | 87 | 342 | 0.0 | 0.0 | 0.00 | 0.00 | 0.00 | 61 | 1014.1 |
| 20260831073646 | 87 | 70 | 0.0 | 0.0 | 0.00 | 0.00 | 0.00 | 62 | 1014.0 |
| 20260831073146 | 86 | 70 | 0.0 | 0.0 | 0.00 | 0.00 | 0.00 | 61 | 1014.0 |
| 20260831072646 | 86 | 71 | 0.0 | 0.0 | 0.00 | 0.00 | 0.00 | 61 | 1014.0 |
| 20260831072146 | 86 | 71 | 0.0 | 0.0 | 0.00 | 0.00 | 0.00 | 63 | 1014.0 |
| 20260831071646 | 85 | 71 | 0.0 | 0.0 | 0.00 | 0.00 | 0.00 | 62 | 1014.0 |
| 20260831071146 | 85 | 71 | 0.0 | 0.0 | 0.00 | 0.00 | 0.00 | 65 | 1014.0 |
| 20260831070646 | 84 | 71 | 0.0 | 0.0 | 0.00 | 0.00 | 0.00 | 66 | 1014.1 |
| 20260831070146 | 83 | 71 | 0.0 | 0.0 | 0.00 | 0.00 | 0.00 | 70 | 1014.1 |
| 20260831065646 | 83 | 71 | 0.0 | 0.0 | 0.00 | 0.00 | 0.00 | 70 | 1014.1 |
| 20260831065146 | 82 | 71 | 0.0 | 0.0 | 0.00 | 0.00 | 0.00 | 71 | 1014.2 |
| 20260831064646 | 80 | 71 | 0.0 | 0.0 | 0.00 | 0.00 | 0.00 | 72 | 1014.2 |
| 20260831064146 | 80 | 71 | 0.0 | 0.0 | 0.00 | 0.00 | 0.00 | 72 | 1014.1 |
| 20260831063646 | 79 | 71 | 0.0 | 0.0 | 0.00 | 0.00 | 0.00 | 72 | 1014.1 |
| 20260831063146 | 79 | 70 | 0.0 | 0.0 | 0.00 | 0.00 | 0.00 | 71 | 1014.1 |
| 20260831062646 | 79 | 67 | 0.0 | 0.0 | 0.00 | 0.00 | 0.00 | 71 | 1014.2 |
| 20260831062146 | 79 | 66 | 0.0 | 0.0 | 0.00 | 0.00 | 0.00 | 71 | 1014.2 |
| 20260831061646 | 79 | 66 | 0.0 | 0.0 | 0.00 | 0.00 | 0.00 | 70 | 1014.2 |
| 20260831061146 | 79 | 65 | 0.0 | 0.0 | 0.00 | 0.00 | 0.00 | 71 | 1014.2 |
| 20260831060646 | 78 | 17 | 0.0 | 0.0 | 0.00 | 0.00 | 0.00 | 72 | 1014.2 |
| 20260831060146 | 78 | 17 | 0.0 | 0.0 | 0.00 | 0.00 | 0.00 | 73 | 1014.2 |
| 20260831055646 | 78 | 17 | 0.0 | 0.0 | 0.00 | 0.00 | 0.00 | 73 | 1014.2 |
| 20260831055146 | 77 | 17 | 0.0 | 0.0 | 0.00 | 0.00 | 0.00 | 71 | 1014.3 |
| 20260831054646 | 77 | 15 | 0.0 | 0.0 | 0.00 | 0.00 | 0.00 | 72 | 1014.2 |
| 20260831054146 | 76 | 348 | 0.0 | 0.0 | 0.00 | 0.00 | 0.00 | 68 | 1014.1 |
| 20260831053646 | 75 | 297 | 0.0 | 0.0 | 0.00 | 0.00 | 0.00 | 69 | 1014.1 |
| 20260831053146 | 75 | 296 | 1.0 | 0.0 | 0.00 | 0.00 | 0.00 | 71 | 1014.2 |
| 20260831052646 | 74 | 296 | 1.0 | 2.0 | 0.00 | 0.00 | 0.00 | 71 | 1014.1 |
| 20260831052146 | 73 | 296 | 1.0 | 3.0 | 0.00 | 0.00 | 0.00 | 72 | 1014.1 |
| 20260831051646 | 73 | 273 | 0.0 | 0.0 | 0.00 | 0.00 | 0.00 | 75 | 1014.1 |
| 20260831051146 | 72 | 273 | 0.0 | 0.0 | 0.00 | 0.00 | 0.00 | 78 | 1014.0 |
| 20260831050646 | 71 | 273 | 0.0 | 0.0 | 0.00 | 0.00 | 0.00 | 82 | 1013.9 |
| 20260831045647 | 70 | 273 | 0.0 | 0.0 | 0.00 | 0.00 | 0.00 | 85 | 1014.0 |
| 20260831045147 | 70 | 273 | 0.0 | 1.0 | 0.00 | 0.00 | 0.00 | 87 | 1013.9 |
| 20260831044646 | 69 | 273 | 1.0 | 1.0 | 0.00 | 0.00 | 0.00 | 90 | 1013.9 |
| 20260831044147 | 69 | 274 | 2.0 | 3.0 | 0.00 | 0.00 | 0.00 | 90 | 1013.8 |
| 20260831043646 | 70 | 273 | 2.0 | 4.0 | 0.00 | 0.00 | 0.00 | 91 | 1013.8 |
| 20260831043147 | 70 | 272 | 2.0 | 4.0 | 0.00 | 0.00 | 0.00 | 91 | 1013.9 |
| 20260831042647 | 70 | 272 | 1.0 | 2.0 | 0.00 | 0.00 | 0.00 | 90 | 1013.8 |
| 20260831042147 | 71 | 272 | 2.0 | 3.0 | 0.00 | 0.00 | 0.00 | 90 | 1013.8 |
| 20260831041647 | 71 | 272 | 2.0 | 3.0 | 0.00 | 0.00 | 0.00 | 90 | 1013.9 |
| 20260831041147 | 71 | 273 | 2.0 | 4.0 | 0.00 | 0.00 | 0.00 | 91 | 1013.8 |
| 20260831040647 | 70 | 288 | 3.0 | 4.0 | 0.00 | 0.00 | 0.00 | 91 | 1013.8 |
| 20260831040147 | 70 | 309 | 2.0 | 4.0 | 0.00 | 0.00 | 0.00 | 91 | 1013.8 |
| 20260831035647 | 70 | 321 | 1.0 | 4.0 | 0.00 | 0.00 | 0.00 | 91 | 1013.7 |
| 20260831035147 | 70 | 9 | 0.0 | 0.0 | 0.00 | 0.00 | 0.00 | 91 | 1013.6 |
| 20260831034647 | 70 | 5 | 0.0 | 0.0 | 0.00 | 0.00 | 0.00 | 91 | 1013.6 |
| 20260831034147 | 71 | 5 | 0.0 | 0.0 | 0.00 | 0.00 | 0.00 | 91 | 1013.5 |
| 20260831033647 | 71 | 5 | 0.0 | 0.0 | 0.00 | 0.00 | 0.00 | 91 | 1013.5 |
| 20260831033147 | 71 | 25 | 0.0 | 0.0 | 0.00 | 0.00 | 0.00 | 91 | 1013.8 |
| 20260831032647 | 71 | 25 | 0.0 | 0.0 | 0.00 | 0.00 | 0.00 | 91 | 1013.9 |
| 20260831032147 | 71 | 25 | 0.0 | 0.0 | 0.00 | 0.00 | 0.00 | 91 | 1013.7 |
| 20260831031647 | 71 | 25 | 0.0 | 0.0 | 0.00 | 0.00 | 0.00 | 91 | 1013.8 |
| 20260831031147 | 71 | 25 | 0.0 | 0.0 | 0.00 | 0.00 | 0.00 | 91 | 1013.8 |
| 20260831030647 | 71 | 25 | 0.0 | 0.0 | 0.00 | 0.00 | 0.00 | 91 | 1013.7 |
| 20260831030147 | 71 | 25 | 0.0 | 0.0 | 0.00 | 0.00 | 0.00 | 91 | 1013.7 |
| 20260831025647 | 72 | 25 | 0.0 | 0.0 | 0.00 | 0.00 | 0.00 | 91 | 1013.6 |
| 20260831025147 | 72 | 38 | 0.0 | 0.0 | 0.00 | 0.00 | 0.00 | 91 | 1013.6 |
| 20260831024647 | 72 | 101 | 0.0 | 0.0 | 0.00 | 0.00 | 0.00 | 91 | 1013.5 |